Location: ????????
(60.4333°N, 46.4710°E)
Time: 03:03:46
(UTC+00:00)

CZ-4B R/B - Pass Details

Date: 25 November 2020
Orbit: 390 x 458 km, 97.6° (Epoch: 19 January)

Event Time Altitude Azimuth Distance (km) Brightness Sun altitude
Exits shadow 15:02:31 28° 184° (S) 787 2.7 -20.7°
Drops below altitude 10° 15:04:07 10° 190° (S) 1,445 4.1 -20.9°
Sets 15:06:06 0° 193° (SSW) 2,307 5.2 -21.1°
